sat.trackr.live / text

‹ back to catalog

UNKNOWN

NORAD 82043

UNKNOWN UNKNOWN UNKNOWN

§ Identity

Operator
Country
Launch date
Launch site
Launch vehicle
Mass (kg)
RCS (m²)

External: N2YO · Heavens-Above

§ Orbital elements

Epoch: 2026-09-18T14:04:53.959296Z

Period
100.43 min
Inclination
97.9657°
Eccentricity
0.0226711
Mean motion
14.33842652 rev/d
Perigee alt
616.7 km
Apogee alt
941.2 km
Semi-major
7,157.1 km
B*
2.3472e-4
RAAN
32.6845°
Arg perigee
321.3357°
Mean anomaly
37.1783°
Rev number
61,393

§ Raw data

UNKNOWN1 82043U          26261.58673564  .00000823  00000+0  23472-3 0  99912 82043  97.9657  32.6845 0226711 321.3357  37.1783 14.33842652613932

JSON: /api/v1/satellites/82043 · /tle

For live sub-satellite position, see the globe view (requires WebGL).

§ Visibility from observer

Set your observer location to see the next 7 days of passes ≥ 10°. The values pass through the URL so the page stays shareable.

No JS? Fill the form by hand. The geolocation button needs JavaScript.